AirNav   Pilot Hours Calculator
 
 1003 users online  

ND38 Rices Airpark
Maddock, North Dakota, USA

GOING TO MADDOCK?


FAA INFORMATION EFFECTIVE 09 SEPTEMBER 2021

Location

FAA Identifier: ND38
Lat/Long: 47-57-30.0300N 099-32-11.4770W
47-57.500500N 099-32.191283W
47.9583417,-99.5365214
(estimated)
Elevation: 1575 ft. / 480 m (estimated)
Variation: 09E (1985)
From city: 1 mile SW of MADDOCK, ND
Time zone: UTC -5 (UTC -6 during Standard Time)
Zip code: 58348

Airport Operations

Airport use: Private use. Permission required prior to landing
Activation date: 08/1964
Control tower: no
ARTCC: MINNEAPOLIS CENTER
FSS: GRAND FORKS FLIGHT SERVICE STATION
Attendance: UNATNDD
Wind indicator: no
Segmented circle: no

Airport Communications

WX AWOS-3 at 5H4 (19 nm SW): 118.825 (701-324-2058)
  • MULTICOM 122.9.

Nearby radio navigation aids

VOR radial/distance  VOR name  Freq  Var
DVLr242/26.7DEVILS LAKE VOR/DME114.7507E

Airport Services

Airframe service: NONE
Powerplant service: NONE

Runway Information

Runway NW/SE

Dimensions: 2200 x 100 ft. / 671 x 30 m
Surface: turf
RUNWAY NW  RUNWAY SE
Traffic pattern: leftleft

Airport Ownership and Management from official FAA records

Ownership: Privately-owned
Owner: JOHN D. RICE, JR.
BOX 93
MADDOCK, ND 58348
Phone 701-438-2350
Manager: JOHN D. RICE, JR.
BOX 93
MADDOCK, ND 58348
Phone 701-438-2350

Airport Operational Statistics

Aircraft based on the field: 2
Single engine airplanes: 2
    

Additional Remarks

FOR CD CTC MINNEAPOLIS ARTCC AT 651-463-5588.

Instrument Procedures

There are no published instrument procedures at ND38.

Some nearby airports with instrument procedures:

5H4 - Harvey Municipal Airport (19 nm SW)
KDVL - Devils Lake Regional Airport (27 nm E)
KRUG - Rugby Municipal Airport (32 nm NW)
9D7 - Cando Municipal Airport (34 nm N)
46D - Carrington Municipal Airport (34 nm SE)
 
Loc | Ops | Rwys | IFR | FBO | Links
Com | Nav | Svcs | Stats | Notes

Bismarck Aero Center
AirBoss

 
Area around ND38 (Rices Airpark)
 
Road maps at: MapQuest Bing Google
 
Aerial photo
No photo
 
Sectional chart

 
Airport distance calculator
Flying to Rices Airpark? Find the distance to fly.

From to ND38

Sunrise and sunset
Times for 24-Sep-2021
 Local
(UTC-5)
 Zulu
(UTC)
Morning civil twilight06:5811:58
Sunrise07:2912:29
Sunset19:3200:32
Evening civil twilight20:0301:03

Current date and time
Zulu (UTC)  24-Sep-2021 22:26:20
Local (UTC-5)  24-Sep-2021 17:26:20
 
METAR
K5H4 
19nm SW 
242215Z AUTO 31018G26KT 10SM CLR 17/M04 A3001 RMK AO2
KDVL 
27nm E 
242156Z AUTO 29024G29KT 10SM CLR 17/M03 A2995 RMK AO2 PK WND 27030/2101 SLP722 T01671028
KRUG 
32nm NW 
242215Z AUTO 30022KT 10SM CLR 17/M04 A2996 RMK AO2
K46D 
34nm SE 
242215Z AUTO 32018G24KT 10SM CLR 17/M03 A3001 RMK AO2
TAF
KDVL 
27nm E 
241720Z 2418/2518 29017G23KT P6SM FEW160 FM250000 30014KT P6SM SKC FM250300 29010KT P6SM FEW250 FM251400 25011KT P6SM BKN250
NOTAMs
Click for the latest NOTAMs
NOTAMs are issued by the DoD/FAA and will open in a separate window not controlled by AirNav.

 

 
 

Would you like to see your business listed on this page?

 If your business provides an interesting product or service to pilots, flight crews, aircraft, or users of the Rices Airpark, you should consider listing it here.  To start the listing process, click on the button below
 
Add a business
 

Other Pages about Rices Airpark

Update a link
 
Copyright © AirNav, LLC. All rights reserved. Privacy Policy  Contact